Weather History for Hatteras, NC

Change the Weather History Date:

Saturday, March 23, 2013

  Actual Average Record
Temperature  
Mean Temperature 47 °F 53 °F  
Max Temperature 54 °F 60 °F 82 °F (1907)
Min Temperature 40 °F 46 °F 26 °F (1888)
Degree Days  
Heating Degree Days 18 12  
Month to date heating degree days 360 332  
Since 1 July heating degree days 2092 2256  
Cooling Degree Days 0 0  
Month to date cooling degree days 0 0  
Year to date cooling degree days 0 0  
Moisture  
Dew Point 35 °F    
Average Humidity 65    
Maximum Humidity 83    
Minimum Humidity 46    
Precipitation  
Precipitation 0.00 in 0.16 in 1.43 in (1989)
Month to date precipitation 1.78 3.49  
Year to date precipitation 11.51 12.75  
Snow  
Snow 0.00 in - - ()
Month to date snowfall 0.0  
Since 1 July snowfall 0.0  
Snow Depth 0.00 in    
Sea Level Pressure  
Sea Level Pressure 30.00 in    
Wind  
Wind Speed 5 mph (WNW)    
Max Wind Speed 12 mph    
Max Gust Speed 17 mph    
Visibility 10 miles    
Events      
T = Trace of Precipitation, MM = Missing Value Source: NWS Daily Summary

Daily Weather History Graph

Daily Weather History Graph

Search for Another Location

Airport:

Trip Planner

Search our weather history database for the weather conditions in past years. The results will help you decide how hot, cold, wet, or windy it might be!

Date:

Astronomy

Mar. 23, 2013 Rise Set
Actual Time 7:01 AM EDT 7:16 PM EDT
Civil Twilight 6:36 AM EDT 7:42 PM EDT
Nautical Twilight 6:06 AM EDT 8:11 PM EDT
Astronomical Twilight 5:36 AM EDT 8:42 PM EDT
Moon 3:48 PM EDT (3/23) 4:28 AM EDT (3/23)
Length of Visible Light 13h 06m
Length of Day
12h 15m
Waxing Gibbous, 85% of the Moon is Illuminated
Mar 23
Waxing Gibbous
Mar 27
Full
Apr 3
Last Quarter
Apr 10
New
Apr 18
First Quarter

Hourly Weather History & Observations

Time (EDT) Temp. Windchill Dew Point Humidity Pressure Visibility Wind Dir Wind Speed Gust Speed Precip Events Conditions
12:51 AM 46.0 °F 42.5 °F 34.0 °F 63% 30.04 in 10.0 mi West 6.9 mph - N/A   Clear
1:51 AM 45.0 °F 41.8 °F 36.0 °F 71% 30.03 in 10.0 mi West 5.8 mph - N/A   Clear
2:51 AM 48.0 °F - 30.9 °F 52% 30.03 in 10.0 mi West 9.2 mph 17.3 mph N/A   Clear
3:51 AM 48.0 °F - 34.0 °F 58% 30.01 in 10.0 mi West 5.8 mph - N/A   Partly Cloudy
4:51 AM 46.9 °F - 33.1 °F 59% 30.01 in 10.0 mi West 6.9 mph - N/A   Clear
5:51 AM 46.9 °F - 33.1 °F 59% 30.01 in 10.0 mi WNW 6.9 mph - N/A   Mostly Cloudy
6:51 AM 46.9 °F - 32.0 °F 56% 30.02 in 10.0 mi NW 3.5 mph - N/A   Overcast
7:51 AM 48.9 °F - 32.0 °F 52% 30.03 in 10.0 mi WNW 4.6 mph - N/A   Overcast
8:51 AM 51.1 °F - 36.0 °F 56% 30.04 in 10.0 mi WNW 3.5 mph - N/A   Clear
9:51 AM 53.1 °F - 34.0 °F 48% 30.03 in 10.0 mi Variable 5.8 mph - N/A   Clear
10:51 AM 53.1 °F - 35.1 °F 50% 30.03 in 10.0 mi WNW 8.1 mph - N/A   Clear
11:51 AM 52.0 °F - 34.0 °F 50% 30.03 in 10.0 mi WNW 8.1 mph - N/A   Clear
12:51 PM 51.1 °F - 34.0 °F 52% 30.04 in 10.0 mi Variable 4.6 mph - N/A   Mostly Cloudy
1:51 PM 51.1 °F - 32.0 °F 48% 30.01 in 10.0 mi North 4.6 mph - N/A   Mostly Cloudy
2:51 PM 50.0 °F - 32.0 °F 50% 30.00 in 10.0 mi Variable 3.5 mph - N/A   Mostly Cloudy
3:51 PM 52.0 °F - 32.0 °F 47% 29.97 in 10.0 mi SW 3.5 mph - N/A   Overcast
4:51 PM 54.0 °F - 34.0 °F 47% 29.96 in 10.0 mi Variable 3.5 mph - N/A   Overcast
5:51 PM 52.0 °F - 35.1 °F 53% 29.94 in 10.0 mi Variable 3.5 mph - N/A   Clear
6:51 PM 48.0 °F - 37.0 °F 66% 29.94 in 10.0 mi East 4.6 mph - N/A   Clear
7:51 PM 46.0 °F 43.9 °F 37.9 °F 73% 29.95 in 10.0 mi East 4.6 mph - N/A   Clear
8:51 PM 42.1 °F 40.2 °F 37.0 °F 82% 29.97 in 10.0 mi SE 3.5 mph - N/A   Clear
9:51 PM 41.0 °F - 36.0 °F 82% 30.01 in 10.0 mi Calm Calm - N/A   Clear
10:51 PM 44.1 °F - 39.0 °F 82% 30.01 in 10.0 mi Calm Calm - N/A   Overcast
11:51 PM 44.1 °F 41.5 °F 37.9 °F 79% 29.98 in 10.0 mi NE 4.6 mph - N/A   Clear